Weather reports worldwide

Advertisment
Auch, France (7622): temperature & dewpoint: 09.12.2019 19:00:00 - 15.12.2019 19:00:00 (CET)Auch, France (7622): temperature 5cm: 09.12.2019 19:00:00 - 15.12.2019 19:00:00 (CET)Auch, France (7622): temperature -20cm & temperature -100cm: 09.12.2019 19:00:00 - 15.12.2019 19:00:00 (CET)Auch, France (7622): wind speed & gusts: 09.12.2019 19:00:00 - 15.12.2019 19:00:00 (CET)Auch, France (7622): wind direction: 09.12.2019 19:00:00 - 15.12.2019 19:00:00 (CET)Auch, France (7622): reduced air pressure: 09.12.2019 19:00:00 - 15.12.2019 19:00:00 (CET)Auch, France (7622): visibility: 09.12.2019 19:00:00 - 15.12.2019 19:00:00 (CET)Auch, France (7622): sunshine duration: 09.12.2019 19:00:00 - 15.12.2019 19:00:00 (CET)Auch, France (7622): precipitation: 09.12.2019 19:00:00 - 15.12.2019 19:00:00 (CET)
Date & Time tt [°C] td [°C] tt 5cm [°C] tt -20cm [°C] tt -100cm [°C] ff [km/h] ff [kn] fx [km/h] fx [kn] dd ppp [hPa] vv [km] sd [min] rr [mm]
15.12.2019 19:00:00 - - - - - - - - - - - - - -
15.12.2019 18:00:00 10,8 8,6 5,9 10,4 12,2 0 0 3 1 N 1009,6 20 0 0,0
15.12.2019 17:00:00 14,5 10,1 11,6 10,3 12,2 3 1 12 6 ENE 1009,5 20 13 0,0
15.12.2019 16:00:00 16,6 10,2 17,1 10,2 12,2 5 3 16 9 ENE 1009,2 20 43 0,0
15.12.2019 15:00:00 17,6 10,0 18,8 10,1 12,2 7 4 21 11 E 1009,0 17 60 0,0
15.12.2019 14:00:00 17,3 9,7 18,3 10,1 12,2 10 5 18 10 ESE 1009,4 20 55 0,0
15.12.2019 13:00:00 14,4 9,8 13,8 10,1 12,2 2 1 6 4 WNW 1010,9 20 37 0,0
15.12.2019 12:00:00 12,0 8,1 13,4 10,2 12,2 6 4 9 5 S 1011,6 20 51 0,0
15.12.2019 11:00:00 9,1 7,4 8,1 10,3 12,2 8 4 11 6 S 1012,0 20 21 0,0
15.12.2019 10:00:00 7,5 6,8 3,3 10,4 12,2 9 5 13 7 S 1011,5 20 46 0,0
15.12.2019 09:00:00 4,3 3,7 2,1 10,4 12,2 4 2 12 6 SSW 1011,4 18 0 0,0
15.12.2019 08:00:00 4,8 4,4 2,5 10,5 12,2 8 4 13 7 S 1011,0 20 0 0,0
15.12.2019 07:00:00 4,6 4,2 1,4 10,6 12,2 7 4 9 5 S 1010,8 20 0 0,0
15.12.2019 06:00:00 4,7 4,0 2,0 10,7 12,1 5 3 13 7 S 1010,6 14 0 0,0
15.12.2019 05:00:00 5,9 5,2 4,6 10,7 12,1 8 5 14 8 SSW 1010,4 20 0 0,0
15.12.2019 04:00:00 6,1 5,5 3,6 10,8 12,2 9 5 16 9 SSW 1010,8 20 0 0,0
15.12.2019 03:00:00 6,1 5,5 4,4 10,9 12,1 11 6 19 10 S 1010,9 20 0 0,0
15.12.2019 02:00:00 6,2 5,6 4,7 11,0 12,1 8 4 15 8 SSW 1011,4 20 0 0,0
15.12.2019 01:00:00 5,9 5,3 3,9 11,0 12,2 11 6 14 8 S 1011,9 16 0 0,0
15.12.2019 00:00:00 7,0 6,4 5,3 11,1 12,1 9 5 15 8 S 1012,2 19 0 0,0
14.12.2019 23:00:00 7,5 7,1 4,0 11,2 12,1 9 5 11 6 SSW 1012,4 20 0 0,0
14.12.2019 22:00:00 7,1 6,5 4,2 11,2 12,1 2 1 6 3 SSW 1012,4 10 0 0,0
14.12.2019 21:00:00 8,3 7,5 4,8 11,3 12,1 0 0 8 4 N 1012,3 17 0 0,0
14.12.2019 20:00:00 9,0 7,9 6,3 11,3 12,1 0 0 4 2 N 1012,4 20 0 0,0
14.12.2019 19:00:00 9,8 8,4 7,1 11,3 12,1 0 0 10 5 N 1012,1 20 0 0,0
14.12.2019 18:00:00 10,3 8,4 7,4 11,2 12,1 0 0 10 5 N 1012,2 20 0 0,0
14.12.2019 17:00:00 13,8 8,6 11,1 11,1 12,1 0 0 12 6 N 1012,4 20 13 0,0
14.12.2019 16:00:00 15,5 8,5 13,8 11,1 12,1 6 3 21 12 SW 1012,5 20 10 0,0
14.12.2019 15:00:00 16,4 8,9 16,3 11,0 12,1 13 7 37 20 W 1012,6 20 17 0,0
14.12.2019 14:00:00 17,4 10,0 16,4 11,0 12,1 17 9 35 19 WSW 1012,6 20 42 0,0
14.12.2019 13:00:00 16,0 10,5 15,8 10,9 12,1 14 8 34 18 WSW 1013,5 20 38 0,0
14.12.2019 12:00:00 14,4 10,2 12,5 10,9 12,1 14 7 29 16 WSW 1014,2 20 7 0,0
14.12.2019 11:00:00 12,6 10,5 11,5 10,9 12,1 13 7 36 19 WSW 1014,4 12 0 0,0
14.12.2019 10:00:00 12,1 10,7 11,3 10,8 12,1 18 10 37 20 SW 1013,8 11 0 0,0
14.12.2019 09:00:00 12,0 10,7 11,4 10,9 12,1 16 9 42 23 SW 1013,4 6 0 0,0
14.12.2019 08:00:00 12,2 10,9 11,3 10,9 12,1 22 12 42 23 WSW 1012,8 9 0 0,0
14.12.2019 07:00:00 12,0 10,7 11,2 10,8 12,1 22 12 40 22 WSW 1012,2 6 0 0,0
14.12.2019 06:00:00 11,8 10,7 11,2 10,9 12,2 20 11 40 22 WSW 1011,3 4,3 0 0,6
14.12.2019 05:00:00 11,9 10,6 11,2 10,8 12,1 20 11 35 19 WSW 1011,0 4,8 0 0,4
14.12.2019 04:00:00 12,0 10,6 11,0 10,8 12,1 18 10 43 23 WSW 1011,1 6 0 0,2
14.12.2019 03:00:00 12,6 9,8 10,9 10,8 12,1 24 13 58 31 W 1010,3 11 0 0,0
14.12.2019 02:00:00 13,3 9,0 11,9 10,8 12,1 27 15 64 35 W 1009,4 15 0 0,0
14.12.2019 01:00:00 13,4 8,5 11,4 10,8 12,1 29 16 64 34 WSW 1008,8 20 0 0,0
14.12.2019 00:00:00 13,5 8,5 12,5 10,8 12,1 27 14 62 33 WSW 1008,6 20 0 0,0
13.12.2019 23:00:00 13,6 9,0 12,7 10,7 12,1 30 16 61 33 W 1008,2 20 0 0,0
13.12.2019 22:00:00 13,9 10,5 12,2 10,7 12,2 32 17 80 43 W 1007,7 20 0 0,0
13.12.2019 21:00:00 13,4 11,8 12,5 10,6 12,1 35 19 70 38 W 1007,1 6 0 1,6
13.12.2019 20:00:00 13,7 12,3 12,7 10,6 12,1 26 14 57 31 W 1006,1 5 0 0,4
13.12.2019 19:00:00 13,5 12,2 12,5 10,6 12,1 27 15 52 28 W 1005,3 3,4 0 1,0
13.12.2019 18:00:00 13,4 12,0 12,2 10,6 12,2 24 13 54 29 W 1005,0 4,8 0 0,4
13.12.2019 17:00:00 12,9 11,8 11,6 10,5 12,2 21 11 49 26 W 1004,9 3,4 0 0,8
13.12.2019 16:00:00 12,3 10,9 11,3 10,4 12,1 23 12 48 26 W 1005,0 4,1 0 0,4
13.12.2019 15:00:00 12,7 9,9 11,0 10,4 12,1 21 11 56 31 WNW 1004,8 6 0 1,4
13.12.2019 14:00:00 12,5 10,0 11,2 10,4 12,2 22 12 66 35 WNW 1003,9 9 0 0,2
13.12.2019 13:00:00 12,7 9,9 11,1 10,3 12,2 32 18 68 37 WNW 1003,3 8 0 0,2
13.12.2019 12:00:00 12,7 9,7 11,1 10,3 12,2 28 15 74 40 WNW 1003,1 9 0 0,0
13.12.2019 11:00:00 12,3 9,5 11,0 10,2 12,2 40 21 79 43 WNW 1002,2 13 0 0,6
13.12.2019 10:00:00 12,6 11,0 11,6 10,1 12,2 27 15 69 37 WNW 1000,5 4,5 0 4,3
13.12.2019 09:00:00 13,5 11,7 12,2 10,1 12,2 37 20 78 42 W 999,0 5 0 1,6
13.12.2019 08:00:00 13,6 11,5 12,3 10,0 12,2 32 18 76 41 W 998,0 7 0 0,4
13.12.2019 07:00:00 13,4 11,8 12,3 10,0 12,2 29 15 77 41 W 997,8 3,9 0 0,6
13.12.2019 06:00:00 13,6 11,8 12,4 9,9 12,2 36 19 77 41 W 997,2 9 0 1,6
13.12.2019 05:00:00 13,6 12,2 12,6 9,9 12,2 29 16 64 34 W 996,6 6 0 1,6
13.12.2019 04:00:00 13,5 12,1 12,4 9,8 12,2 25 14 55 30 W 997,3 7 0 1,0
13.12.2019 03:00:00 13,3 11,9 12,3 9,8 12,2 22 12 54 29 W 998,0 7 0 0,6
13.12.2019 02:00:00 13,3 11,7 11,6 9,7 12,2 25 14 52 28 W 998,2 18 0 1,7
13.12.2019 01:00:00 12,4 11,1 11,5 9,7 12,2 16 8 34 19 W 999,4 4,7 0 1,4
13.12.2019 00:00:00 12,5 11,1 11,5 9,6 12,2 18 10 37 20 W 999,8 15 0 1,2
12.12.2019 23:00:00 12,4 11,0 11,2 9,6 12,2 18 10 32 18 W 999,8 13 0 2,2
12.12.2019 22:00:00 12,3 10,7 10,4 9,6 12,2 20 11 42 23 W 1000,0 11 0 0,4
12.12.2019 21:00:00 11,0 10,1 9,8 9,6 12,3 14 8 48 26 WSW 1000,7 4,2 0 0,4
12.12.2019 20:00:00 10,6 9,2 9,3 9,6 12,3 21 11 47 26 WSW 1001,0 8 0 0,6
12.12.2019 19:00:00 10,6 8,2 8,6 9,5 12,3 23 13 50 27 WSW 1000,7 17 0 0,0
12.12.2019 18:00:00 9,3 7,2 8,0 9,5 12,3 16 9 34 19 SSW 1001,1 20 0 0,0
12.12.2019 17:00:00 8,8 7,2 8,0 9,5 12,3 16 8 31 17 S 1001,9 18 0 1,2
12.12.2019 16:00:00 9,9 6,8 8,3 9,4 12,3 16 9 34 19 SSW 1003,9 19 0 0,4
12.12.2019 15:00:00 10,7 6,1 10,5 9,4 12,3 11 6 37 20 SW 1005,9 20 0 0,0
12.12.2019 14:00:00 10,3 6,8 9,5 9,3 12,3 9 5 29 16 WSW 1008,0 20 0 0,0
12.12.2019 13:00:00 9,8 7,4 9,5 9,2 12,3 12 6 25 13 SW 1009,7 20 0 0,0
12.12.2019 12:00:00 9,7 7,3 8,8 9,2 12,3 14 7 29 16 SW 1011,2 20 0 0,0
12.12.2019 11:00:00 8,6 6,9 7,6 9,2 12,3 11 6 24 13 SW 1012,8 20 0 0,0
12.12.2019 10:00:00 7,8 6,4 6,9 9,2 12,3 11 6 22 12 SW 1013,7 20 0 0,4
12.12.2019 09:00:00 7,5 6,3 6,8 9,2 12,3 11 6 25 14 SW 1014,4 19 0 0,6
12.12.2019 08:00:00 7,5 6,3 6,7 9,2 12,3 12 7 28 15 SW 1015,0 14 0 0,2
12.12.2019 07:00:00 7,7 6,2 6,9 9,3 12,3 15 8 26 14 SW 1015,2 19 0 0,6
12.12.2019 06:00:00 7,9 6,4 6,7 9,3 12,3 15 8 25 13 SW 1015,5 20 0 0,0
12.12.2019 05:00:00 7,7 6,0 6,9 9,3 12,3 12 6 20 11 SSW 1016,0 20 0 0,0
12.12.2019 04:00:00 7,8 5,9 6,7 9,4 12,3 13 7 25 13 SW 1016,7 20 0 0,0
12.12.2019 03:00:00 8,2 6,2 6,9 9,4 12,3 10 6 27 14 SW 1017,0 20 0 0,0
12.12.2019 02:00:00 7,9 5,9 6,8 9,4 12,3 10 5 25 14 WSW 1017,3 20 0 0,0
12.12.2019 01:00:00 7,9 5,9 6,6 9,4 12,3 13 7 27 15 SW 1017,4 20 0 0,0
12.12.2019 00:00:00 7,7 5,5 6,5 9,4 12,3 12 7 26 14 SW 1018,1 20 0 0,0
11.12.2019 23:00:00 8,0 6,1 7,1 9,5 12,3 13 7 34 18 SW 1018,2 20 0 0,0
11.12.2019 22:00:00 8,2 6,2 7,1 9,5 12,4 16 9 39 21 WSW 1018,3 20 0 0,0
11.12.2019 21:00:00 7,5 5,6 6,2 9,5 12,3 18 10 42 23 SW 1018,2 20 0 3,0
11.12.2019 20:00:00 7,8 5,9 6,9 9,5 12,4 18 10 31 17 SW 1018,5 15 0 0,4
11.12.2019 19:00:00 7,9 5,7 5,0 9,5 12,3 14 8 29 15 SW 1018,4 20 0 0,0
11.12.2019 18:00:00 6,8 4,9 4,9 9,4 12,4 10 5 18 10 SSW 1019,2 20 0 0,0
11.12.2019 17:00:00 8,9 6,3 6,8 9,4 12,4 10 5 36 19 SW 1019,4 20 14 1,0
11.12.2019 16:00:00 9,0 6,1 7,8 9,3 12,4 15 8 37 20 NW 1020,0 8 11 0,8
11.12.2019 15:00:00 9,2 7,1 8,1 9,3 12,4 14 8 24 13 SW 1019,3 20 6 0,4
11.12.2019 14:00:00 8,7 7,0 8,1 9,2 12,4 12 7 32 17 W 1019,8 17 0 1,0
11.12.2019 13:00:00 9,4 7,5 8,7 9,2 12,4 17 9 40 22 WNW 1019,7 14 0 1,2
11.12.2019 12:00:00 9,6 8,2 8,2 9,2 12,3 13 7 26 14 WNW 1019,6 14 0 2,0
11.12.2019 11:00:00 9,4 6,5 7,6 9,2 12,4 9 5 18 10 SW 1019,0 15 0 0,4
11.12.2019 10:00:00 7,6 5,4 6,2 9,2 12,4 4 2 17 9 ESE 1018,3 20 0 0,0
11.12.2019 09:00:00 6,4 5,3 5,8 9,2 12,4 4 2 6 4 SSW 1017,6 15 0 0,0
11.12.2019 08:00:00 6,0 5,0 5,6 9,2 12,4 0 0 8 4 N 1017,2 19 0 0,0
11.12.2019 07:00:00 5,9 4,5 5,6 9,3 12,4 0 0 7 4 N 1017,2 19 0 0,0
11.12.2019 06:00:00 5,7 4,5 5,4 9,3 12,3 2 1 6 3 NNE 1017,8 20 0 0,0
11.12.2019 05:00:00 5,4 4,4 4,5 9,3 12,4 6 3 9 5 S 1018,2 20 0 0,0
11.12.2019 04:00:00 5,0 4,1 4,5 9,4 12,4 2 1 11 6 S 1019,2 20 0 0,0
11.12.2019 03:00:00 4,4 3,8 3,7 9,4 12,4 7 4 9 5 S 1020,0 16 0 0,0
11.12.2019 02:00:00 3,5 3,1 2,5 9,5 12,4 0 0 5 3 N 1021,0 12 0 0,0
11.12.2019 01:00:00 2,7 2,3 0,8 9,6 12,4 3 2 4 2 S 1021,7 10 0 0,0
11.12.2019 00:00:00 2,0 1,6 -1,3 9,7 12,4 0 0 2 1 N 1022,2 11 0 0,0
10.12.2019 23:00:00 1,9 1,3 -1,6 9,8 12,4 0 0 5 3 N 1022,9 9 0 0,0
10.12.2019 22:00:00 1,8 1,1 -1,2 9,8 12,4 2 1 6 3 S 1023,2 10 0 0,0
10.12.2019 21:00:00 2,8 2,1 -0,6 9,9 12,4 3 1 4 2 SSW 1023,8 9 0 0,0
10.12.2019 20:00:00 3,5 2,6 -0,4 9,9 12,4 0 0 3 2 N 1024,6 19 0 0,0
10.12.2019 19:00:00 4,1 2,9 0,0 9,9 12,4 0 0 4 2 N 1024,5 20 0 0,0
10.12.2019 18:00:00 6,0 4,0 0,8 9,9 12,4 0 0 4 2 N 1025,2 20 0 0,0
10.12.2019 17:00:00 9,3 4,5 7,3 9,8 12,3 4 2 9 5 ESE 1025,4 20 11 0,0
10.12.2019 16:00:00 11,1 4,3 12,6 9,8 12,4 8 4 16 9 E 1026,0 20 55 0,0
10.12.2019 15:00:00 11,6 5,5 15,2 9,7 12,4 8 4 14 8 ENE 1026,5 19 57 0,0
10.12.2019 14:00:00 11,7 7,0 15,6 9,7 12,3 3 2 13 7 NNE 1027,5 19 60 0,0
10.12.2019 13:00:00 9,6 8,0 9,9 9,7 12,4 6 3 10 5 N 1028,4 18 58 0,0
10.12.2019 12:00:00 7,6 7,5 7,0 9,7 12,4 3 2 9 5 N 1029,5 2,7 8 0,0
10.12.2019 11:00:00 5,8 5,7 5,4 9,8 12,4 0 0 8 4 N 1030,6 0,2 4 0,0
10.12.2019 10:00:00 4,3 4,0 4,0 9,9 12,4 6 3 11 6 SSW 1031,2 0,2 0 0,0
10.12.2019 09:00:00 3,7 3,4 2,9 10,0 12,4 0 0 7 4 N 1031,6 0,2 0 0,0
10.12.2019 08:00:00 3,4 3,1 1,0 10,0 12,4 5 3 11 6 SSW 1031,7 0,3 0 0,0
10.12.2019 07:00:00 2,8 2,5 -0,8 10,1 12,3 7 4 15 8 S 1031,5 0,5 0 0,0
10.12.2019 06:00:00 3,1 2,5 -0,7 10,2 12,4 3 2 6 3 S 1031,7 0,7 0 0,0
10.12.2019 05:00:00 4,2 3,5 0,5 10,3 12,4 0 0 3 2 N 1032,1 5 0 0,0
10.12.2019 04:00:00 5,1 4,1 1,0 10,4 12,4 4 2 10 5 SW 1032,1 12 0 0,0
10.12.2019 03:00:00 7,1 5,2 4,9 10,4 12,4 6 3 13 7 W 1031,9 16 0 0,0
10.12.2019 02:00:00 7,7 5,8 4,8 10,5 12,4 6 3 14 8 W 1031,8 17 0 0,0
10.12.2019 01:00:00 7,7 5,8 5,0 10,5 12,4 7 4 14 8 WSW 1031,4 16 0 0,0
10.12.2019 00:00:00 7,8 5,8 4,9 10,5 12,4 5 3 18 10 W 1031,1 17 0 0,0
09.12.2019 23:00:00 8,7 6,3 6,9 10,6 12,4 10 6 28 15 WNW 1030,4 18 0 0,0
09.12.2019 22:00:00 9,0 6,8 7,8 10,6 12,4 11 6 28 15 W 1030,0 16 0 0,4
09.12.2019 21:00:00 9,4 6,7 7,6 10,6 12,4 11 6 34 18 W 1029,6 19 0 0,0
09.12.2019 20:00:00 9,4 7,0 8,1 10,6 12,3 15 8 33 18 W 1028,5 19 0 0,2
09.12.2019 19:00:00 9,8 6,5 8,1 10,6 12,3 20 11 41 22 W 1027,8 19 0 0,0

tt = temperature
td = dewpoint
tt 5cm = temperature 5cm
tt -20cm = temperature -20cm
tt -100cm = temperature -100cm
ff = wind speed
fx = gusts
dd = wind direction
ppp = reduced air pressure
vv = visibility
sd = sunshine duration
rr = precipitation

Next stations